Index of /20260430/WXO-DD/model_gdps/15km/12/102
Name Last modified Size Description
Parent Directory -
20260430T12Z_MSC_GDPS_AbsoluteVorticity_IsbL-0200_LatLon0.15_PT102H.grib2 2026-04-30 16:25 1.5M
20260430T12Z_MSC_GDPS_AbsoluteVorticity_IsbL-0250_LatLon0.15_PT102H.grib2 2026-04-30 16:25 1.3M
20260430T12Z_MSC_GDPS_AbsoluteVorticity_IsbL-0500_LatLon0.15_PT102H.grib2 2026-04-30 16:25 1.4M
20260430T12Z_MSC_GDPS_AbsoluteVorticity_IsbL-0700_LatLon0.15_PT102H.grib2 2026-04-30 16:25 1.6M
20260430T12Z_MSC_GDPS_AbsoluteVorticity_IsbL-0850_LatLon0.15_PT102H.grib2 2026-04-30 16:25 1.6M
20260430T12Z_MSC_GDPS_AirTemp-Max_AGL-2m_LatLon0.15_PT102H.grib2 2026-04-30 16:25 745K
20260430T12Z_MSC_GDPS_AirTemp-Min_AGL-2m_LatLon0.15_PT102H.grib2 2026-04-30 16:25 791K
20260430T12Z_MSC_GDPS_AirTemp_AGL-120m_LatLon0.15_PT102H.grib2 2026-04-30 16:25 905K
20260430T12Z_MSC_GDPS_AirTemp_AGL-2m_LatLon0.15_PT102H.grib2 2026-04-30 16:25 1.0M
20260430T12Z_MSC_GDPS_AirTemp_AGL-40m_LatLon0.15_PT102H.grib2 2026-04-30 16:25 811K
20260430T12Z_MSC_GDPS_AirTemp_AGL-80m_LatLon0.15_PT102H.grib2 2026-04-30 16:25 798K
20260430T12Z_MSC_GDPS_AirTemp_IsbL-0001_LatLon0.15_PT102H.grib2 2026-04-30 16:25 654K
20260430T12Z_MSC_GDPS_AirTemp_IsbL-0005_LatLon0.15_PT102H.grib2 2026-04-30 16:25 682K
20260430T12Z_MSC_GDPS_AirTemp_IsbL-0010_LatLon0.15_PT102H.grib2 2026-04-30 16:25 693K
20260430T12Z_MSC_GDPS_AirTemp_IsbL-0020_LatLon0.15_PT102H.grib2 2026-04-30 16:25 792K
20260430T12Z_MSC_GDPS_AirTemp_IsbL-0030_LatLon0.15_PT102H.grib2 2026-04-30 16:25 842K
20260430T12Z_MSC_GDPS_AirTemp_IsbL-0050_LatLon0.15_PT102H.grib2 2026-04-30 16:25 817K
20260430T12Z_MSC_GDPS_AirTemp_IsbL-0100_LatLon0.15_PT102H.grib2 2026-04-30 16:25 1.0M
20260430T12Z_MSC_GDPS_AirTemp_IsbL-0150_LatLon0.15_PT102H.grib2 2026-04-30 16:25 972K
20260430T12Z_MSC_GDPS_AirTemp_IsbL-0175_LatLon0.15_PT102H.grib2 2026-04-30 16:25 960K
20260430T12Z_MSC_GDPS_AirTemp_IsbL-0200_LatLon0.15_PT102H.grib2 2026-04-30 16:25 972K
20260430T12Z_MSC_GDPS_AirTemp_IsbL-0225_LatLon0.15_PT102H.grib2 2026-04-30 16:25 1.0M
20260430T12Z_MSC_GDPS_AirTemp_IsbL-0250_LatLon0.15_PT102H.grib2 2026-04-30 16:25 1.0M
20260430T12Z_MSC_GDPS_AirTemp_IsbL-0275_LatLon0.15_PT102H.grib2 2026-04-30 16:25 1.0M
20260430T12Z_MSC_GDPS_AirTemp_IsbL-0300_LatLon0.15_PT102H.grib2 2026-04-30 16:25 1.0M
20260430T12Z_MSC_GDPS_AirTemp_IsbL-0350_LatLon0.15_PT102H.grib2 2026-04-30 16:25 928K
20260430T12Z_MSC_GDPS_AirTemp_IsbL-0400_LatLon0.15_PT102H.grib2 2026-04-30 16:25 941K
20260430T12Z_MSC_GDPS_AirTemp_IsbL-0450_LatLon0.15_PT102H.grib2 2026-04-30 16:25 964K
20260430T12Z_MSC_GDPS_AirTemp_IsbL-0500_LatLon0.15_PT102H.grib2 2026-04-30 16:25 1.0M
20260430T12Z_MSC_GDPS_AirTemp_IsbL-0550_LatLon0.15_PT102H.grib2 2026-04-30 16:25 802K
20260430T12Z_MSC_GDPS_AirTemp_IsbL-0600_LatLon0.15_PT102H.grib2 2026-04-30 16:25 892K
20260430T12Z_MSC_GDPS_AirTemp_IsbL-0650_LatLon0.15_PT102H.grib2 2026-04-30 16:25 918K
20260430T12Z_MSC_GDPS_AirTemp_IsbL-0700_LatLon0.15_PT102H.grib2 2026-04-30 16:25 952K
20260430T12Z_MSC_GDPS_AirTemp_IsbL-0750_LatLon0.15_PT102H.grib2 2026-04-30 16:25 1.0M
20260430T12Z_MSC_GDPS_AirTemp_IsbL-0800_LatLon0.15_PT102H.grib2 2026-04-30 16:25 1.1M
20260430T12Z_MSC_GDPS_AirTemp_IsbL-0850_LatLon0.15_PT102H.grib2 2026-04-30 16:25 1.1M
20260430T12Z_MSC_GDPS_AirTemp_IsbL-0875_LatLon0.15_PT102H.grib2 2026-04-30 16:25 1.2M
20260430T12Z_MSC_GDPS_AirTemp_IsbL-0900_LatLon0.15_PT102H.grib2 2026-04-30 16:25 1.2M
20260430T12Z_MSC_GDPS_AirTemp_IsbL-0925_LatLon0.15_PT102H.grib2 2026-04-30 16:25 1.1M
20260430T12Z_MSC_GDPS_AirTemp_IsbL-0950_LatLon0.15_PT102H.grib2 2026-04-30 16:25 1.1M
20260430T12Z_MSC_GDPS_AirTemp_IsbL-0970_LatLon0.15_PT102H.grib2 2026-04-30 16:25 1.1M
20260430T12Z_MSC_GDPS_AirTemp_IsbL-0985_LatLon0.15_PT102H.grib2 2026-04-30 16:25 1.1M
20260430T12Z_MSC_GDPS_AirTemp_IsbL-1000_LatLon0.15_PT102H.grib2 2026-04-30 16:25 1.1M
20260430T12Z_MSC_GDPS_AirTemp_IsbL-1015_LatLon0.15_PT102H.grib2 2026-04-30 16:25 865K
20260430T12Z_MSC_GDPS_Albedo_Sfc_LatLon0.15_PT102H.grib2 2026-04-30 16:25 245K
20260430T12Z_MSC_GDPS_CAPE_Sfc_LatLon0.15_PT102H.grib2 2026-04-30 16:25 3.7M
20260430T12Z_MSC_GDPS_CIN_Sfc_LatLon0.15_PT102H.grib2 2026-04-30 16:25 2.8M
20260430T12Z_MSC_GDPS_CloudWater_EAtm_LatLon0.15_PT102H.grib2 2026-04-30 16:25 534K
20260430T12Z_MSC_GDPS_ConvectivePrecip-Accum_Sfc_LatLon0.15_PT102H.grib2 2026-04-30 16:25 3.4M
20260430T12Z_MSC_GDPS_DewPointDepression_AGL-2m_LatLon0.15_PT102H.grib2 2026-04-30 16:25 765K
20260430T12Z_MSC_GDPS_DewPointDepression_IsbL-0010_LatLon0.15_PT102H.grib2 2026-04-30 16:25 72K
20260430T12Z_MSC_GDPS_DewPointDepression_IsbL-0020_LatLon0.15_PT102H.grib2 2026-04-30 16:25 75K
20260430T12Z_MSC_GDPS_DewPointDepression_IsbL-0030_LatLon0.15_PT102H.grib2 2026-04-30 16:25 88K
20260430T12Z_MSC_GDPS_DewPointDepression_IsbL-0050_LatLon0.15_PT102H.grib2 2026-04-30 16:25 386K
20260430T12Z_MSC_GDPS_DewPointDepression_IsbL-0100_LatLon0.15_PT102H.grib2 2026-04-30 16:25 405K
20260430T12Z_MSC_GDPS_DewPointDepression_IsbL-0150_LatLon0.15_PT102H.grib2 2026-04-30 16:25 471K
20260430T12Z_MSC_GDPS_DewPointDepression_IsbL-0175_LatLon0.15_PT102H.grib2 2026-04-30 16:25 577K
20260430T12Z_MSC_GDPS_DewPointDepression_IsbL-0200_LatLon0.15_PT102H.grib2 2026-04-30 16:25 681K
20260430T12Z_MSC_GDPS_DewPointDepression_IsbL-0225_LatLon0.15_PT102H.grib2 2026-04-30 16:25 773K
20260430T12Z_MSC_GDPS_DewPointDepression_IsbL-0250_LatLon0.15_PT102H.grib2 2026-04-30 16:25 860K
20260430T12Z_MSC_GDPS_DewPointDepression_IsbL-0275_LatLon0.15_PT102H.grib2 2026-04-30 16:25 881K
20260430T12Z_MSC_GDPS_DewPointDepression_IsbL-0300_LatLon0.15_PT102H.grib2 2026-04-30 16:25 924K
20260430T12Z_MSC_GDPS_DewPointDepression_IsbL-0350_LatLon0.15_PT102H.grib2 2026-04-30 16:25 960K
20260430T12Z_MSC_GDPS_DewPointDepression_IsbL-0400_LatLon0.15_PT102H.grib2 2026-04-30 16:25 1.0M
20260430T12Z_MSC_GDPS_DewPointDepression_IsbL-0450_LatLon0.15_PT102H.grib2 2026-04-30 16:25 1.0M
20260430T12Z_MSC_GDPS_DewPointDepression_IsbL-0500_LatLon0.15_PT102H.grib2 2026-04-30 16:25 1.0M
20260430T12Z_MSC_GDPS_DewPointDepression_IsbL-0550_LatLon0.15_PT102H.grib2 2026-04-30 16:25 1.0M
20260430T12Z_MSC_GDPS_DewPointDepression_IsbL-0600_LatLon0.15_PT102H.grib2 2026-04-30 16:25 1.0M
20260430T12Z_MSC_GDPS_DewPointDepression_IsbL-0650_LatLon0.15_PT102H.grib2 2026-04-30 16:25 1.1M
20260430T12Z_MSC_GDPS_DewPointDepression_IsbL-0700_LatLon0.15_PT102H.grib2 2026-04-30 16:25 1.1M
20260430T12Z_MSC_GDPS_DewPointDepression_IsbL-0750_LatLon0.15_PT102H.grib2 2026-04-30 16:25 1.1M
20260430T12Z_MSC_GDPS_DewPointDepression_IsbL-0800_LatLon0.15_PT102H.grib2 2026-04-30 16:25 1.2M
20260430T12Z_MSC_GDPS_DewPointDepression_IsbL-0850_LatLon0.15_PT102H.grib2 2026-04-30 16:25 1.2M
20260430T12Z_MSC_GDPS_DewPointDepression_IsbL-0875_LatLon0.15_PT102H.grib2 2026-04-30 16:25 1.1M
20260430T12Z_MSC_GDPS_DewPointDepression_IsbL-0900_LatLon0.15_PT102H.grib2 2026-04-30 16:25 1.1M
20260430T12Z_MSC_GDPS_DewPointDepression_IsbL-0925_LatLon0.15_PT102H.grib2 2026-04-30 16:25 1.0M
20260430T12Z_MSC_GDPS_DewPointDepression_IsbL-0950_LatLon0.15_PT102H.grib2 2026-04-30 16:25 1.0M
20260430T12Z_MSC_GDPS_DewPointDepression_IsbL-0970_LatLon0.15_PT102H.grib2 2026-04-30 16:25 1.0M
20260430T12Z_MSC_GDPS_DewPointDepression_IsbL-0985_LatLon0.15_PT102H.grib2 2026-04-30 16:25 1.0M
20260430T12Z_MSC_GDPS_DewPointDepression_IsbL-1000_LatLon0.15_PT102H.grib2 2026-04-30 16:25 1.0M
20260430T12Z_MSC_GDPS_DewPointDepression_IsbL-1015_LatLon0.15_PT102H.grib2 2026-04-30 16:25 921K
20260430T12Z_MSC_GDPS_DewPoint_AGL-2m_LatLon0.15_PT102H.grib2 2026-04-30 16:25 610K
20260430T12Z_MSC_GDPS_DownwardLongwaveRadiationFlux-Accum_Sfc_LatLon0.15_PT102H.grib2 2026-04-30 16:25 770K
20260430T12Z_MSC_GDPS_DownwardShortwaveRadiationFlux-Accum_NTAtm_LatLon0.15_PT102H.grib2 2026-04-30 16:25 274K
20260430T12Z_MSC_GDPS_DownwardShortwaveRadiationFlux-Accum_Sfc_LatLon0.15_PT102H.grib2 2026-04-30 16:25 968K
20260430T12Z_MSC_GDPS_FreezingRain-Accum12h_Sfc_LatLon0.15_PT102H.grib2 2026-04-30 16:25 116K
20260430T12Z_MSC_GDPS_FreezingRain-Accum1h_Sfc_LatLon0.15_PT102H.grib2 2026-04-30 16:25 43K
20260430T12Z_MSC_GDPS_FreezingRain-Accum24h_Sfc_LatLon0.15_PT102H.grib2 2026-04-30 16:25 158K
20260430T12Z_MSC_GDPS_FreezingRain-Accum3h_Sfc_LatLon0.15_PT102H.grib2 2026-04-30 16:25 60K
20260430T12Z_MSC_GDPS_FreezingRain-Accum6h_Sfc_LatLon0.15_PT102H.grib2 2026-04-30 16:25 98K
20260430T12Z_MSC_GDPS_FreezingRain-Accum_Sfc_LatLon0.15_PT102H.grib2 2026-04-30 16:25 377K
20260430T12Z_MSC_GDPS_GeopotentialHeight_IsbL-0001_LatLon0.15_PT102H.grib2 2026-04-30 16:25 414K
20260430T12Z_MSC_GDPS_GeopotentialHeight_IsbL-0005_LatLon0.15_PT102H.grib2 2026-04-30 16:25 490K
20260430T12Z_MSC_GDPS_GeopotentialHeight_IsbL-0010_LatLon0.15_PT102H.grib2 2026-04-30 16:25 481K
20260430T12Z_MSC_GDPS_GeopotentialHeight_IsbL-0020_LatLon0.15_PT102H.grib2 2026-04-30 16:25 415K
20260430T12Z_MSC_GDPS_GeopotentialHeight_IsbL-0030_LatLon0.15_PT102H.grib2 2026-04-30 16:25 572K
20260430T12Z_MSC_GDPS_GeopotentialHeight_IsbL-0050_LatLon0.15_PT102H.grib2 2026-04-30 16:25 573K
20260430T12Z_MSC_GDPS_GeopotentialHeight_IsbL-0100_LatLon0.15_PT102H.grib2 2026-04-30 16:25 609K
20260430T12Z_MSC_GDPS_GeopotentialHeight_IsbL-0150_LatLon0.15_PT102H.grib2 2026-04-30 16:25 630K
20260430T12Z_MSC_GDPS_GeopotentialHeight_IsbL-0175_LatLon0.15_PT102H.grib2 2026-04-30 16:25 633K
20260430T12Z_MSC_GDPS_GeopotentialHeight_IsbL-0200_LatLon0.15_PT102H.grib2 2026-04-30 16:25 638K
20260430T12Z_MSC_GDPS_GeopotentialHeight_IsbL-0225_LatLon0.15_PT102H.grib2 2026-04-30 16:25 635K
20260430T12Z_MSC_GDPS_GeopotentialHeight_IsbL-0250_LatLon0.15_PT102H.grib2 2026-04-30 16:25 639K
20260430T12Z_MSC_GDPS_GeopotentialHeight_IsbL-0275_LatLon0.15_PT102H.grib2 2026-04-30 16:25 642K
20260430T12Z_MSC_GDPS_GeopotentialHeight_IsbL-0300_LatLon0.15_PT102H.grib2 2026-04-30 16:25 634K
20260430T12Z_MSC_GDPS_GeopotentialHeight_IsbL-0350_LatLon0.15_PT102H.grib2 2026-04-30 16:25 628K
20260430T12Z_MSC_GDPS_GeopotentialHeight_IsbL-0400_LatLon0.15_PT102H.grib2 2026-04-30 16:25 621K
20260430T12Z_MSC_GDPS_GeopotentialHeight_IsbL-0450_LatLon0.15_PT102H.grib2 2026-04-30 16:25 610K
20260430T12Z_MSC_GDPS_GeopotentialHeight_IsbL-0500_LatLon0.15_PT102H.grib2 2026-04-30 16:25 531K
20260430T12Z_MSC_GDPS_GeopotentialHeight_IsbL-0550_LatLon0.15_PT102H.grib2 2026-04-30 16:25 528K
20260430T12Z_MSC_GDPS_GeopotentialHeight_IsbL-0600_LatLon0.15_PT102H.grib2 2026-04-30 16:25 525K
20260430T12Z_MSC_GDPS_GeopotentialHeight_IsbL-0650_LatLon0.15_PT102H.grib2 2026-04-30 16:25 691K
20260430T12Z_MSC_GDPS_GeopotentialHeight_IsbL-0700_LatLon0.15_PT102H.grib2 2026-04-30 16:25 692K
20260430T12Z_MSC_GDPS_GeopotentialHeight_IsbL-0750_LatLon0.15_PT102H.grib2 2026-04-30 16:25 691K
20260430T12Z_MSC_GDPS_GeopotentialHeight_IsbL-0800_LatLon0.15_PT102H.grib2 2026-04-30 16:25 704K
20260430T12Z_MSC_GDPS_GeopotentialHeight_IsbL-0850_LatLon0.15_PT102H.grib2 2026-04-30 16:25 708K
20260430T12Z_MSC_GDPS_GeopotentialHeight_IsbL-0875_LatLon0.15_PT102H.grib2 2026-04-30 16:25 718K
20260430T12Z_MSC_GDPS_GeopotentialHeight_IsbL-0900_LatLon0.15_PT102H.grib2 2026-04-30 16:25 723K
20260430T12Z_MSC_GDPS_GeopotentialHeight_IsbL-0925_LatLon0.15_PT102H.grib2 2026-04-30 16:25 731K
20260430T12Z_MSC_GDPS_GeopotentialHeight_IsbL-0950_LatLon0.15_PT102H.grib2 2026-04-30 16:25 736K
20260430T12Z_MSC_GDPS_GeopotentialHeight_IsbL-0970_LatLon0.15_PT102H.grib2 2026-04-30 16:25 747K
20260430T12Z_MSC_GDPS_GeopotentialHeight_IsbL-0985_LatLon0.15_PT102H.grib2 2026-04-30 16:25 763K
20260430T12Z_MSC_GDPS_GeopotentialHeight_IsbL-1000_LatLon0.15_PT102H.grib2 2026-04-30 16:25 783K
20260430T12Z_MSC_GDPS_GeopotentialHeight_IsbL-1015_LatLon0.15_PT102H.grib2 2026-04-30 16:25 615K
20260430T12Z_MSC_GDPS_Humidex_Sfc_LatLon0.15_PT102H.grib2 2026-04-30 16:25 5.3M
20260430T12Z_MSC_GDPS_IcePellets-Accum12h_Sfc_LatLon0.15_PT102H.grib2 2026-04-30 16:25 16K
20260430T12Z_MSC_GDPS_IcePellets-Accum1h_Sfc_LatLon0.15_PT102H.grib2 2026-04-30 16:25 6.3K
20260430T12Z_MSC_GDPS_IcePellets-Accum24h_Sfc_LatLon0.15_PT102H.grib2 2026-04-30 16:25 24K
20260430T12Z_MSC_GDPS_IcePellets-Accum3h_Sfc_LatLon0.15_PT102H.grib2 2026-04-30 16:25 8.5K
20260430T12Z_MSC_GDPS_IcePellets-Accum6h_Sfc_LatLon0.15_PT102H.grib2 2026-04-30 16:25 13K
20260430T12Z_MSC_GDPS_IcePellets-Accum_Sfc_LatLon0.15_PT102H.grib2 2026-04-30 16:25 88K
20260430T12Z_MSC_GDPS_KIndex_Sfc_LatLon0.15_PT102H.grib2 2026-04-30 16:25 6.5M
20260430T12Z_MSC_GDPS_LatentHeatNetFlux_Sfc_LatLon0.15_PT102H.grib2 2026-04-30 16:25 693K
20260430T12Z_MSC_GDPS_LiftedIndex-MU-VT_IsbL-0500_LatLon0.15_PT102H.grib2 2026-04-30 16:25 5.4M
20260430T12Z_MSC_GDPS_NetLongwaveRadiationFlux-Accum_Sfc_LatLon0.15_PT102H.grib2 2026-04-30 16:25 1.0M
20260430T12Z_MSC_GDPS_NetShortwaveRadiationFlux-Accum_Sfc_LatLon0.15_PT102H.grib2 2026-04-30 16:25 938K
20260430T12Z_MSC_GDPS_O3MixingRatio_Sfc_LatLon0.15_PT102H.grib2 2026-04-30 16:45 1.9M
20260430T12Z_MSC_GDPS_O3_EAtm_LatLon0.15_PT102H.grib2 2026-04-30 16:45 2.4M
20260430T12Z_MSC_GDPS_PlanetaryBoundaryLayerHeight_Sfc_LatLon0.15_PT102H.grib2 2026-04-30 16:25 2.4M
20260430T12Z_MSC_GDPS_Precip-Accum12h_Sfc_LatLon0.15_PT102H.grib2 2026-04-30 16:25 4.3M
20260430T12Z_MSC_GDPS_Precip-Accum1h_Sfc_LatLon0.15_PT102H.grib2 2026-04-30 16:25 3.2M
20260430T12Z_MSC_GDPS_Precip-Accum24h_Sfc_LatLon0.15_PT102H.grib2 2026-04-30 16:25 4.5M
20260430T12Z_MSC_GDPS_Precip-Accum3h_Sfc_LatLon0.15_PT102H.grib2 2026-04-30 16:25 3.5M
20260430T12Z_MSC_GDPS_Precip-Accum6h_Sfc_LatLon0.15_PT102H.grib2 2026-04-30 16:25 3.9M
20260430T12Z_MSC_GDPS_Precip-Accum_Sfc_LatLon0.15_PT102H.grib2 2026-04-30 16:25 5.4M
20260430T12Z_MSC_GDPS_PrecipRate_Sfc_LatLon0.15_PT102H.grib2 2026-04-30 16:25 3.1M
20260430T12Z_MSC_GDPS_PrecipType-Instant_Sfc_LatLon0.15_PT102H.grib2 2026-04-30 16:25 1.6M
20260430T12Z_MSC_GDPS_Pressure_MSL_LatLon0.15_PT102H.grib2 2026-04-30 16:25 822K
20260430T12Z_MSC_GDPS_Pressure_PVU-1.5_LatLon0.15_PT102H.grib2 2026-04-30 16:25 5.8M
20260430T12Z_MSC_GDPS_Pressure_PVU-1_LatLon0.15_PT102H.grib2 2026-04-30 16:25 6.0M
20260430T12Z_MSC_GDPS_Pressure_PVU-2_LatLon0.15_PT102H.grib2 2026-04-30 16:25 5.6M
20260430T12Z_MSC_GDPS_Pressure_Sfc_LatLon0.15_PT102H.grib2 2026-04-30 16:25 1.1M
20260430T12Z_MSC_GDPS_RadiativeTemp_Sfc_LatLon0.15_PT102H.grib2 2026-04-30 16:25 664K
20260430T12Z_MSC_GDPS_Rain-Accum12h_Sfc_LatLon0.15_PT102H.grib2 2026-04-30 16:25 2.9M
20260430T12Z_MSC_GDPS_Rain-Accum1h_Sfc_LatLon0.15_PT102H.grib2 2026-04-30 16:25 1.7M
20260430T12Z_MSC_GDPS_Rain-Accum24h_Sfc_LatLon0.15_PT102H.grib2 2026-04-30 16:25 3.1M
20260430T12Z_MSC_GDPS_Rain-Accum3h_Sfc_LatLon0.15_PT102H.grib2 2026-04-30 16:25 1.9M
20260430T12Z_MSC_GDPS_Rain-Accum6h_Sfc_LatLon0.15_PT102H.grib2 2026-04-30 16:25 2.5M
20260430T12Z_MSC_GDPS_Rain-Accum_Sfc_LatLon0.15_PT102H.grib2 2026-04-30 16:25 4.1M
20260430T12Z_MSC_GDPS_RelativeHumidity_AGL-2m_LatLon0.15_PT102H.grib2 2026-04-30 16:25 1.1M
20260430T12Z_MSC_GDPS_RelativeHumidity_IsbL-0010_LatLon0.15_PT102H.grib2 2026-04-30 16:25 199K
20260430T12Z_MSC_GDPS_RelativeHumidity_IsbL-0020_LatLon0.15_PT102H.grib2 2026-04-30 16:25 167K
20260430T12Z_MSC_GDPS_RelativeHumidity_IsbL-0030_LatLon0.15_PT102H.grib2 2026-04-30 16:25 271K
20260430T12Z_MSC_GDPS_RelativeHumidity_IsbL-0050_LatLon0.15_PT102H.grib2 2026-04-30 16:25 340K
20260430T12Z_MSC_GDPS_RelativeHumidity_IsbL-0100_LatLon0.15_PT102H.grib2 2026-04-30 16:25 504K
20260430T12Z_MSC_GDPS_RelativeHumidity_IsbL-0150_LatLon0.15_PT102H.grib2 2026-04-30 16:25 659K
20260430T12Z_MSC_GDPS_RelativeHumidity_IsbL-0175_LatLon0.15_PT102H.grib2 2026-04-30 16:25 791K
20260430T12Z_MSC_GDPS_RelativeHumidity_IsbL-0200_LatLon0.15_PT102H.grib2 2026-04-30 16:25 710K
20260430T12Z_MSC_GDPS_RelativeHumidity_IsbL-0225_LatLon0.15_PT102H.grib2 2026-04-30 16:25 793K
20260430T12Z_MSC_GDPS_RelativeHumidity_IsbL-0250_LatLon0.15_PT102H.grib2 2026-04-30 16:25 866K
20260430T12Z_MSC_GDPS_RelativeHumidity_IsbL-0275_LatLon0.15_PT102H.grib2 2026-04-30 16:25 891K
20260430T12Z_MSC_GDPS_RelativeHumidity_IsbL-0300_LatLon0.15_PT102H.grib2 2026-04-30 16:25 932K
20260430T12Z_MSC_GDPS_RelativeHumidity_IsbL-0350_LatLon0.15_PT102H.grib2 2026-04-30 16:25 954K
20260430T12Z_MSC_GDPS_RelativeHumidity_IsbL-0400_LatLon0.15_PT102H.grib2 2026-04-30 16:25 1.0M
20260430T12Z_MSC_GDPS_RelativeHumidity_IsbL-0450_LatLon0.15_PT102H.grib2 2026-04-30 16:25 1.0M
20260430T12Z_MSC_GDPS_RelativeHumidity_IsbL-0500_LatLon0.15_PT102H.grib2 2026-04-30 16:25 1.0M
20260430T12Z_MSC_GDPS_RelativeHumidity_IsbL-0550_LatLon0.15_PT102H.grib2 2026-04-30 16:25 1.0M
20260430T12Z_MSC_GDPS_RelativeHumidity_IsbL-0600_LatLon0.15_PT102H.grib2 2026-04-30 16:25 1.1M
20260430T12Z_MSC_GDPS_RelativeHumidity_IsbL-0650_LatLon0.15_PT102H.grib2 2026-04-30 16:25 1.1M
20260430T12Z_MSC_GDPS_RelativeHumidity_IsbL-0700_LatLon0.15_PT102H.grib2 2026-04-30 16:25 1.1M
20260430T12Z_MSC_GDPS_RelativeHumidity_IsbL-0750_LatLon0.15_PT102H.grib2 2026-04-30 16:25 1.2M
20260430T12Z_MSC_GDPS_RelativeHumidity_IsbL-0800_LatLon0.15_PT102H.grib2 2026-04-30 16:25 1.2M
20260430T12Z_MSC_GDPS_RelativeHumidity_IsbL-0850_LatLon0.15_PT102H.grib2 2026-04-30 16:25 1.3M
20260430T12Z_MSC_GDPS_RelativeHumidity_IsbL-0875_LatLon0.15_PT102H.grib2 2026-04-30 16:25 1.3M
20260430T12Z_MSC_GDPS_RelativeHumidity_IsbL-0900_LatLon0.15_PT102H.grib2 2026-04-30 16:25 1.2M
20260430T12Z_MSC_GDPS_RelativeHumidity_IsbL-0925_LatLon0.15_PT102H.grib2 2026-04-30 16:25 1.2M
20260430T12Z_MSC_GDPS_RelativeHumidity_IsbL-0950_LatLon0.15_PT102H.grib2 2026-04-30 16:25 1.2M
20260430T12Z_MSC_GDPS_RelativeHumidity_IsbL-0970_LatLon0.15_PT102H.grib2 2026-04-30 16:25 1.2M
20260430T12Z_MSC_GDPS_RelativeHumidity_IsbL-0985_LatLon0.15_PT102H.grib2 2026-04-30 16:25 1.2M
20260430T12Z_MSC_GDPS_RelativeHumidity_IsbL-1000_LatLon0.15_PT102H.grib2 2026-04-30 16:25 1.2M
20260430T12Z_MSC_GDPS_RelativeHumidity_IsbL-1015_LatLon0.15_PT102H.grib2 2026-04-30 16:25 1.1M
20260430T12Z_MSC_GDPS_RelativeVorticity_IsbL-0200_LatLon0.15_PT102H.grib2 2026-04-30 16:25 1.5M
20260430T12Z_MSC_GDPS_RelativeVorticity_IsbL-0250_LatLon0.15_PT102H.grib2 2026-04-30 16:25 1.3M
20260430T12Z_MSC_GDPS_RelativeVorticity_IsbL-0500_LatLon0.15_PT102H.grib2 2026-04-30 16:25 1.4M
20260430T12Z_MSC_GDPS_RelativeVorticity_IsbL-0700_LatLon0.15_PT102H.grib2 2026-04-30 16:25 1.6M
20260430T12Z_MSC_GDPS_RelativeVorticity_IsbL-0850_LatLon0.15_PT102H.grib2 2026-04-30 16:25 2.0M
20260430T12Z_MSC_GDPS_Runoff-Accum_Sfc_LatLon0.15_PT102H.grib2 2026-04-30 16:25 132K
20260430T12Z_MSC_GDPS_SensibleHeatNetFlux_Sfc_LatLon0.15_PT102H.grib2 2026-04-30 16:25 470K
20260430T12Z_MSC_GDPS_ShowalterIndex_IsbL-0500_LatLon0.15_PT102H.grib2 2026-04-30 16:25 6.2M
20260430T12Z_MSC_GDPS_Snow-Accum12h_Sfc_LatLon0.15_PT102H.grib2 2026-04-30 16:25 1.5M
20260430T12Z_MSC_GDPS_Snow-Accum1h_Sfc_LatLon0.15_PT102H.grib2 2026-04-30 16:25 1.1M
20260430T12Z_MSC_GDPS_Snow-Accum24h_Sfc_LatLon0.15_PT102H.grib2 2026-04-30 16:25 1.6M
20260430T12Z_MSC_GDPS_Snow-Accum3h_Sfc_LatLon0.15_PT102H.grib2 2026-04-30 16:25 1.1M
20260430T12Z_MSC_GDPS_Snow-Accum6h_Sfc_LatLon0.15_PT102H.grib2 2026-04-30 16:25 1.4M
20260430T12Z_MSC_GDPS_Snow-Accum_Sfc_LatLon0.15_PT102H.grib2 2026-04-30 16:25 2.0M
20260430T12Z_MSC_GDPS_SnowDensity_Sfc_LatLon0.15_PT102H.grib2 2026-04-30 16:25 263K
20260430T12Z_MSC_GDPS_SnowDepth_Sfc_LatLon0.15_PT102H.grib2 2026-04-30 16:25 1.7M
20260430T12Z_MSC_GDPS_SoilTemp_DBS-0to10cm_LatLon0.15_PT102H.grib2 2026-04-30 16:25 513K
20260430T12Z_MSC_GDPS_SoilTemp_Sfc_LatLon0.15_PT102H.grib2 2026-04-30 16:25 581K
20260430T12Z_MSC_GDPS_SoilVolumetricIceContent_Sfc_LatLon0.15_PT102H.grib2 2026-04-30 16:25 194K
20260430T12Z_MSC_GDPS_SoilVolumetricWaterContent_DBS-0to10cm_LatLon0.15_PT102H.grib2 2026-04-30 16:25 590K
20260430T12Z_MSC_GDPS_SoilVolumetricWaterContent_DBS-0to1cm_LatLon0.15_PT102H.grib2 2026-04-30 16:25 649K
20260430T12Z_MSC_GDPS_SpecificHumidity_AGL-120m_LatLon0.15_PT102H.grib2 2026-04-30 16:25 1.1M
20260430T12Z_MSC_GDPS_SpecificHumidity_AGL-2m_LatLon0.15_PT102H.grib2 2026-04-30 16:25 1.2M
20260430T12Z_MSC_GDPS_SpecificHumidity_AGL-40m_LatLon0.15_PT102H.grib2 2026-04-30 16:25 1.1M
20260430T12Z_MSC_GDPS_SpecificHumidity_AGL-80m_LatLon0.15_PT102H.grib2 2026-04-30 16:25 1.1M
20260430T12Z_MSC_GDPS_SpecificHumidity_IsbL-0001_LatLon0.15_PT102H.grib2 2026-04-30 16:25 1.2M
20260430T12Z_MSC_GDPS_SpecificHumidity_IsbL-0005_LatLon0.15_PT102H.grib2 2026-04-30 16:25 1.2M
20260430T12Z_MSC_GDPS_SpecificHumidity_IsbL-0010_LatLon0.15_PT102H.grib2 2026-04-30 16:25 1.3M
20260430T12Z_MSC_GDPS_SpecificHumidity_IsbL-0020_LatLon0.15_PT102H.grib2 2026-04-30 16:25 1.3M
20260430T12Z_MSC_GDPS_SpecificHumidity_IsbL-0030_LatLon0.15_PT102H.grib2 2026-04-30 16:25 1.6M
20260430T12Z_MSC_GDPS_SpecificHumidity_IsbL-0050_LatLon0.15_PT102H.grib2 2026-04-30 16:25 1.6M
20260430T12Z_MSC_GDPS_SpecificHumidity_IsbL-0100_LatLon0.15_PT102H.grib2 2026-04-30 16:25 1.3M
20260430T12Z_MSC_GDPS_SpecificHumidity_IsbL-0150_LatLon0.15_PT102H.grib2 2026-04-30 16:25 1.3M
20260430T12Z_MSC_GDPS_SpecificHumidity_IsbL-0175_LatLon0.15_PT102H.grib2 2026-04-30 16:25 1.3M
20260430T12Z_MSC_GDPS_SpecificHumidity_IsbL-0200_LatLon0.15_PT102H.grib2 2026-04-30 16:25 1.3M
20260430T12Z_MSC_GDPS_SpecificHumidity_IsbL-0225_LatLon0.15_PT102H.grib2 2026-04-30 16:25 1.3M
20260430T12Z_MSC_GDPS_SpecificHumidity_IsbL-0250_LatLon0.15_PT102H.grib2 2026-04-30 16:25 1.4M
20260430T12Z_MSC_GDPS_SpecificHumidity_IsbL-0275_LatLon0.15_PT102H.grib2 2026-04-30 16:25 1.3M
20260430T12Z_MSC_GDPS_SpecificHumidity_IsbL-0300_LatLon0.15_PT102H.grib2 2026-04-30 16:25 1.2M
20260430T12Z_MSC_GDPS_SpecificHumidity_IsbL-0350_LatLon0.15_PT102H.grib2 2026-04-30 16:25 1.5M
20260430T12Z_MSC_GDPS_SpecificHumidity_IsbL-0400_LatLon0.15_PT102H.grib2 2026-04-30 16:25 1.5M
20260430T12Z_MSC_GDPS_SpecificHumidity_IsbL-0450_LatLon0.15_PT102H.grib2 2026-04-30 16:25 1.6M
20260430T12Z_MSC_GDPS_SpecificHumidity_IsbL-0500_LatLon0.15_PT102H.grib2 2026-04-30 16:25 1.4M
20260430T12Z_MSC_GDPS_SpecificHumidity_IsbL-0550_LatLon0.15_PT102H.grib2 2026-04-30 16:25 1.6M
20260430T12Z_MSC_GDPS_SpecificHumidity_IsbL-0600_LatLon0.15_PT102H.grib2 2026-04-30 16:25 1.7M
20260430T12Z_MSC_GDPS_SpecificHumidity_IsbL-0650_LatLon0.15_PT102H.grib2 2026-04-30 16:25 1.5M
20260430T12Z_MSC_GDPS_SpecificHumidity_IsbL-0700_LatLon0.15_PT102H.grib2 2026-04-30 16:25 1.6M
20260430T12Z_MSC_GDPS_SpecificHumidity_IsbL-0750_LatLon0.15_PT102H.grib2 2026-04-30 16:25 1.7M
20260430T12Z_MSC_GDPS_SpecificHumidity_IsbL-0800_LatLon0.15_PT102H.grib2 2026-04-30 16:25 1.8M
20260430T12Z_MSC_GDPS_SpecificHumidity_IsbL-0850_LatLon0.15_PT102H.grib2 2026-04-30 16:25 1.9M
20260430T12Z_MSC_GDPS_SpecificHumidity_IsbL-0875_LatLon0.15_PT102H.grib2 2026-04-30 16:25 1.9M
20260430T12Z_MSC_GDPS_SpecificHumidity_IsbL-0900_LatLon0.15_PT102H.grib2 2026-04-30 16:25 1.9M
20260430T12Z_MSC_GDPS_SpecificHumidity_IsbL-0925_LatLon0.15_PT102H.grib2 2026-04-30 16:25 1.6M
20260430T12Z_MSC_GDPS_SpecificHumidity_IsbL-0950_LatLon0.15_PT102H.grib2 2026-04-30 16:25 1.6M
20260430T12Z_MSC_GDPS_SpecificHumidity_IsbL-0970_LatLon0.15_PT102H.grib2 2026-04-30 16:25 1.5M
20260430T12Z_MSC_GDPS_SpecificHumidity_IsbL-0985_LatLon0.15_PT102H.grib2 2026-04-30 16:25 1.5M
20260430T12Z_MSC_GDPS_SpecificHumidity_IsbL-1000_LatLon0.15_PT102H.grib2 2026-04-30 16:25 1.5M
20260430T12Z_MSC_GDPS_SpecificHumidity_IsbL-1015_LatLon0.15_PT102H.grib2 2026-04-30 16:25 1.5M
20260430T12Z_MSC_GDPS_SpecificHumidity_Sfc_LatLon0.15_PT102H.grib2 2026-04-30 16:25 671K
20260430T12Z_MSC_GDPS_Thickness_IsbL-0850to0700_LatLon0.15_PT102H.grib2 2026-04-30 16:25 469K
20260430T12Z_MSC_GDPS_Thickness_IsbL-1000to0500_LatLon0.15_PT102H.grib2 2026-04-30 16:25 373K
20260430T12Z_MSC_GDPS_Thickness_IsbL-1000to0850_LatLon0.15_PT102H.grib2 2026-04-30 16:25 490K
20260430T12Z_MSC_GDPS_TotalCloudCover_Sfc_LatLon0.15_PT102H.grib2 2026-04-30 16:25 822K
20260430T12Z_MSC_GDPS_TotalTotalsIndex_Sfc_LatLon0.15_PT102H.grib2 2026-04-30 16:25 6.2M
20260430T12Z_MSC_GDPS_UVIndex-ClearSky-Max24h_Sfc_LatLon0.15_PT102H.grib2 2026-04-30 16:45 2.2M
20260430T12Z_MSC_GDPS_UVIndex-ClearSky_Sfc_LatLon0.15_PT102H.grib2 2026-04-30 16:45 1.0M
20260430T12Z_MSC_GDPS_UVIndex-Max24h_Sfc_LatLon0.15_PT102H.grib2 2026-04-30 16:45 3.2M
20260430T12Z_MSC_GDPS_UVIndex_Sfc_LatLon0.15_PT102H.grib2 2026-04-30 16:45 1.5M
20260430T12Z_MSC_GDPS_UpwardLongwaveRadiationFlux_NTAtm_LatLon0.15_PT102H.grib2 2026-04-30 16:25 831K
20260430T12Z_MSC_GDPS_VerticalVelocity_IsbL-0200_LatLon0.15_PT102H.grib2 2026-04-30 16:25 1.2M
20260430T12Z_MSC_GDPS_VerticalVelocity_IsbL-0250_LatLon0.15_PT102H.grib2 2026-04-30 16:25 1.0M
20260430T12Z_MSC_GDPS_VerticalVelocity_IsbL-0500_LatLon0.15_PT102H.grib2 2026-04-30 16:25 1.0M
20260430T12Z_MSC_GDPS_VerticalVelocity_IsbL-0600_LatLon0.15_PT102H.grib2 2026-04-30 16:25 1.1M
20260430T12Z_MSC_GDPS_VerticalVelocity_IsbL-0700_LatLon0.15_PT102H.grib2 2026-04-30 16:25 1.4M
20260430T12Z_MSC_GDPS_VerticalVelocity_IsbL-0850_LatLon0.15_PT102H.grib2 2026-04-30 16:25 1.6M
20260430T12Z_MSC_GDPS_WindChill_Sfc_LatLon0.15_PT102H.grib2 2026-04-30 16:25 5.3M
20260430T12Z_MSC_GDPS_WindDir_AGL-10m_LatLon0.15_PT102H.grib2 2026-04-30 16:25 1.3M
20260430T12Z_MSC_GDPS_WindDir_AGL-120m_LatLon0.15_PT102H.grib2 2026-04-30 16:25 1.3M
20260430T12Z_MSC_GDPS_WindDir_AGL-40m_LatLon0.15_PT102H.grib2 2026-04-30 16:25 1.4M
20260430T12Z_MSC_GDPS_WindDir_AGL-80m_LatLon0.15_PT102H.grib2 2026-04-30 16:25 1.4M
20260430T12Z_MSC_GDPS_WindDir_IsbL-0001_LatLon0.15_PT102H.grib2 2026-04-30 16:25 683K
20260430T12Z_MSC_GDPS_WindDir_IsbL-0005_LatLon0.15_PT102H.grib2 2026-04-30 16:25 829K
20260430T12Z_MSC_GDPS_WindDir_IsbL-0010_LatLon0.15_PT102H.grib2 2026-04-30 16:25 832K
20260430T12Z_MSC_GDPS_WindDir_IsbL-0020_LatLon0.15_PT102H.grib2 2026-04-30 16:25 952K
20260430T12Z_MSC_GDPS_WindDir_IsbL-0030_LatLon0.15_PT102H.grib2 2026-04-30 16:25 945K
20260430T12Z_MSC_GDPS_WindDir_IsbL-0050_LatLon0.15_PT102H.grib2 2026-04-30 16:25 950K
20260430T12Z_MSC_GDPS_WindDir_IsbL-0100_LatLon0.15_PT102H.grib2 2026-04-30 16:25 1.0M
20260430T12Z_MSC_GDPS_WindDir_IsbL-0150_LatLon0.15_PT102H.grib2 2026-04-30 16:25 1.0M
20260430T12Z_MSC_GDPS_WindDir_IsbL-0175_LatLon0.15_PT102H.grib2 2026-04-30 16:25 1.0M
20260430T12Z_MSC_GDPS_WindDir_IsbL-0200_LatLon0.15_PT102H.grib2 2026-04-30 16:25 1.1M
20260430T12Z_MSC_GDPS_WindDir_IsbL-0225_LatLon0.15_PT102H.grib2 2026-04-30 16:25 1.1M
20260430T12Z_MSC_GDPS_WindDir_IsbL-0250_LatLon0.15_PT102H.grib2 2026-04-30 16:25 1.1M
20260430T12Z_MSC_GDPS_WindDir_IsbL-0275_LatLon0.15_PT102H.grib2 2026-04-30 16:25 1.2M
20260430T12Z_MSC_GDPS_WindDir_IsbL-0300_LatLon0.15_PT102H.grib2 2026-04-30 16:25 1.2M
20260430T12Z_MSC_GDPS_WindDir_IsbL-0350_LatLon0.15_PT102H.grib2 2026-04-30 16:25 1.2M
20260430T12Z_MSC_GDPS_WindDir_IsbL-0400_LatLon0.15_PT102H.grib2 2026-04-30 16:25 1.3M
20260430T12Z_MSC_GDPS_WindDir_IsbL-0450_LatLon0.15_PT102H.grib2 2026-04-30 16:25 1.3M
20260430T12Z_MSC_GDPS_WindDir_IsbL-0500_LatLon0.15_PT102H.grib2 2026-04-30 16:25 1.3M
20260430T12Z_MSC_GDPS_WindDir_IsbL-0550_LatLon0.15_PT102H.grib2 2026-04-30 16:25 1.4M
20260430T12Z_MSC_GDPS_WindDir_IsbL-0600_LatLon0.15_PT102H.grib2 2026-04-30 16:25 1.4M
20260430T12Z_MSC_GDPS_WindDir_IsbL-0650_LatLon0.15_PT102H.grib2 2026-04-30 16:25 1.5M
20260430T12Z_MSC_GDPS_WindDir_IsbL-0700_LatLon0.15_PT102H.grib2 2026-04-30 16:25 1.6M
20260430T12Z_MSC_GDPS_WindDir_IsbL-0750_LatLon0.15_PT102H.grib2 2026-04-30 16:25 1.7M
20260430T12Z_MSC_GDPS_WindDir_IsbL-0800_LatLon0.15_PT102H.grib2 2026-04-30 16:25 1.8M
20260430T12Z_MSC_GDPS_WindDir_IsbL-0850_LatLon0.15_PT102H.grib2 2026-04-30 16:25 1.9M
20260430T12Z_MSC_GDPS_WindDir_IsbL-0875_LatLon0.15_PT102H.grib2 2026-04-30 16:25 2.0M
20260430T12Z_MSC_GDPS_WindDir_IsbL-0900_LatLon0.15_PT102H.grib2 2026-04-30 16:25 2.0M
20260430T12Z_MSC_GDPS_WindDir_IsbL-0925_LatLon0.15_PT102H.grib2 2026-04-30 16:25 2.0M
20260430T12Z_MSC_GDPS_WindDir_IsbL-0950_LatLon0.15_PT102H.grib2 2026-04-30 16:25 2.0M
20260430T12Z_MSC_GDPS_WindDir_IsbL-0970_LatLon0.15_PT102H.grib2 2026-04-30 16:25 2.0M
20260430T12Z_MSC_GDPS_WindDir_IsbL-0985_LatLon0.15_PT102H.grib2 2026-04-30 16:25 2.0M
20260430T12Z_MSC_GDPS_WindDir_IsbL-1000_LatLon0.15_PT102H.grib2 2026-04-30 16:25 2.1M
20260430T12Z_MSC_GDPS_WindDir_IsbL-1015_LatLon0.15_PT102H.grib2 2026-04-30 16:25 2.0M
20260430T12Z_MSC_GDPS_WindGust-Max_AGL-10m_LatLon0.15_PT102H.grib2 2026-04-30 16:25 2.3M
20260430T12Z_MSC_GDPS_WindGust-Min_AGL-10m_LatLon0.15_PT102H.grib2 2026-04-30 16:25 2.2M
20260430T12Z_MSC_GDPS_WindGust_AGL-10m_LatLon0.15_PT102H.grib2 2026-04-30 16:25 2.2M
20260430T12Z_MSC_GDPS_WindSpeed_AGL-10m_LatLon0.15_PT102H.grib2 2026-04-30 16:25 1.1M
20260430T12Z_MSC_GDPS_WindSpeed_AGL-120m_LatLon0.15_PT102H.grib2 2026-04-30 16:25 1.2M
20260430T12Z_MSC_GDPS_WindSpeed_AGL-40m_LatLon0.15_PT102H.grib2 2026-04-30 16:25 1.2M
20260430T12Z_MSC_GDPS_WindSpeed_AGL-80m_LatLon0.15_PT102H.grib2 2026-04-30 16:25 1.2M
20260430T12Z_MSC_GDPS_WindSpeed_IsbL-0001_LatLon0.15_PT102H.grib2 2026-04-30 16:25 649K
20260430T12Z_MSC_GDPS_WindSpeed_IsbL-0005_LatLon0.15_PT102H.grib2 2026-04-30 16:25 613K
20260430T12Z_MSC_GDPS_WindSpeed_IsbL-0010_LatLon0.15_PT102H.grib2 2026-04-30 16:25 627K
20260430T12Z_MSC_GDPS_WindSpeed_IsbL-0020_LatLon0.15_PT102H.grib2 2026-04-30 16:25 860K
20260430T12Z_MSC_GDPS_WindSpeed_IsbL-0030_LatLon0.15_PT102H.grib2 2026-04-30 16:25 868K
20260430T12Z_MSC_GDPS_WindSpeed_IsbL-0050_LatLon0.15_PT102H.grib2 2026-04-30 16:25 1.0M
20260430T12Z_MSC_GDPS_WindSpeed_IsbL-0100_LatLon0.15_PT102H.grib2 2026-04-30 16:25 1.2M
20260430T12Z_MSC_GDPS_WindSpeed_IsbL-0150_LatLon0.15_PT102H.grib2 2026-04-30 16:25 947K
20260430T12Z_MSC_GDPS_WindSpeed_IsbL-0175_LatLon0.15_PT102H.grib2 2026-04-30 16:25 1.0M
20260430T12Z_MSC_GDPS_WindSpeed_IsbL-0200_LatLon0.15_PT102H.grib2 2026-04-30 16:25 1.1M
20260430T12Z_MSC_GDPS_WindSpeed_IsbL-0225_LatLon0.15_PT102H.grib2 2026-04-30 16:25 1.1M
20260430T12Z_MSC_GDPS_WindSpeed_IsbL-0250_LatLon0.15_PT102H.grib2 2026-04-30 16:25 1.1M
20260430T12Z_MSC_GDPS_WindSpeed_IsbL-0275_LatLon0.15_PT102H.grib2 2026-04-30 16:25 1.1M
20260430T12Z_MSC_GDPS_WindSpeed_IsbL-0300_LatLon0.15_PT102H.grib2 2026-04-30 16:25 1.1M
20260430T12Z_MSC_GDPS_WindSpeed_IsbL-0350_LatLon0.15_PT102H.grib2 2026-04-30 16:25 1.1M
20260430T12Z_MSC_GDPS_WindSpeed_IsbL-0400_LatLon0.15_PT102H.grib2 2026-04-30 16:25 1.1M
20260430T12Z_MSC_GDPS_WindSpeed_IsbL-0450_LatLon0.15_PT102H.grib2 2026-04-30 16:25 1.1M
20260430T12Z_MSC_GDPS_WindSpeed_IsbL-0500_LatLon0.15_PT102H.grib2 2026-04-30 16:25 1.1M
20260430T12Z_MSC_GDPS_WindSpeed_IsbL-0550_LatLon0.15_PT102H.grib2 2026-04-30 16:25 1.1M
20260430T12Z_MSC_GDPS_WindSpeed_IsbL-0600_LatLon0.15_PT102H.grib2 2026-04-30 16:25 1.1M
20260430T12Z_MSC_GDPS_WindSpeed_IsbL-0650_LatLon0.15_PT102H.grib2 2026-04-30 16:25 1.4M
20260430T12Z_MSC_GDPS_WindSpeed_IsbL-0700_LatLon0.15_PT102H.grib2 2026-04-30 16:25 1.5M
20260430T12Z_MSC_GDPS_WindSpeed_IsbL-0750_LatLon0.15_PT102H.grib2 2026-04-30 16:25 1.6M
20260430T12Z_MSC_GDPS_WindSpeed_IsbL-0800_LatLon0.15_PT102H.grib2 2026-04-30 16:25 1.7M
20260430T12Z_MSC_GDPS_WindSpeed_IsbL-0850_LatLon0.15_PT102H.grib2 2026-04-30 16:25 1.8M
20260430T12Z_MSC_GDPS_WindSpeed_IsbL-0875_LatLon0.15_PT102H.grib2 2026-04-30 16:25 1.8M
20260430T12Z_MSC_GDPS_WindSpeed_IsbL-0900_LatLon0.15_PT102H.grib2 2026-04-30 16:25 1.8M
20260430T12Z_MSC_GDPS_WindSpeed_IsbL-0925_LatLon0.15_PT102H.grib2 2026-04-30 16:25 1.9M
20260430T12Z_MSC_GDPS_WindSpeed_IsbL-0950_LatLon0.15_PT102H.grib2 2026-04-30 16:25 1.9M
20260430T12Z_MSC_GDPS_WindSpeed_IsbL-0970_LatLon0.15_PT102H.grib2 2026-04-30 16:25 1.9M
20260430T12Z_MSC_GDPS_WindSpeed_IsbL-0985_LatLon0.15_PT102H.grib2 2026-04-30 16:25 1.9M
20260430T12Z_MSC_GDPS_WindSpeed_IsbL-1000_LatLon0.15_PT102H.grib2 2026-04-30 16:25 1.8M
20260430T12Z_MSC_GDPS_WindSpeed_IsbL-1015_LatLon0.15_PT102H.grib2 2026-04-30 16:25 1.8M
20260430T12Z_MSC_GDPS_WindU_AGL-10m_LatLon0.15_PT102H.grib2 2026-04-30 16:25 1.6M
20260430T12Z_MSC_GDPS_WindU_AGL-120m_LatLon0.15_PT102H.grib2 2026-04-30 16:25 1.0M
20260430T12Z_MSC_GDPS_WindU_AGL-40m_LatLon0.15_PT102H.grib2 2026-04-30 16:25 969K
20260430T12Z_MSC_GDPS_WindU_AGL-80m_LatLon0.15_PT102H.grib2 2026-04-30 16:25 1.0M
20260430T12Z_MSC_GDPS_WindU_IsbL-0001_LatLon0.15_PT102H.grib2 2026-04-30 16:25 498K
20260430T12Z_MSC_GDPS_WindU_IsbL-0005_LatLon0.15_PT102H.grib2 2026-04-30 16:25 689K
20260430T12Z_MSC_GDPS_WindU_IsbL-0010_LatLon0.15_PT102H.grib2 2026-04-30 16:25 703K
20260430T12Z_MSC_GDPS_WindU_IsbL-0020_LatLon0.15_PT102H.grib2 2026-04-30 16:25 732K
20260430T12Z_MSC_GDPS_WindU_IsbL-0030_LatLon0.15_PT102H.grib2 2026-04-30 16:25 741K
20260430T12Z_MSC_GDPS_WindU_IsbL-0050_LatLon0.15_PT102H.grib2 2026-04-30 16:25 700K
20260430T12Z_MSC_GDPS_WindU_IsbL-0100_LatLon0.15_PT102H.grib2 2026-04-30 16:25 872K
20260430T12Z_MSC_GDPS_WindU_IsbL-0150_LatLon0.15_PT102H.grib2 2026-04-30 16:25 1.0M
20260430T12Z_MSC_GDPS_WindU_IsbL-0175_LatLon0.15_PT102H.grib2 2026-04-30 16:25 1.0M
20260430T12Z_MSC_GDPS_WindU_IsbL-0200_LatLon0.15_PT102H.grib2 2026-04-30 16:25 1.0M
20260430T12Z_MSC_GDPS_WindU_IsbL-0225_LatLon0.15_PT102H.grib2 2026-04-30 16:25 852K
20260430T12Z_MSC_GDPS_WindU_IsbL-0250_LatLon0.15_PT102H.grib2 2026-04-30 16:25 854K
20260430T12Z_MSC_GDPS_WindU_IsbL-0275_LatLon0.15_PT102H.grib2 2026-04-30 16:25 882K
20260430T12Z_MSC_GDPS_WindU_IsbL-0300_LatLon0.15_PT102H.grib2 2026-04-30 16:25 875K
20260430T12Z_MSC_GDPS_WindU_IsbL-0350_LatLon0.15_PT102H.grib2 2026-04-30 16:25 889K
20260430T12Z_MSC_GDPS_WindU_IsbL-0400_LatLon0.15_PT102H.grib2 2026-04-30 16:25 891K
20260430T12Z_MSC_GDPS_WindU_IsbL-0450_LatLon0.15_PT102H.grib2 2026-04-30 16:25 1.1M
20260430T12Z_MSC_GDPS_WindU_IsbL-0500_LatLon0.15_PT102H.grib2 2026-04-30 16:25 1.1M
20260430T12Z_MSC_GDPS_WindU_IsbL-0550_LatLon0.15_PT102H.grib2 2026-04-30 16:25 1.1M
20260430T12Z_MSC_GDPS_WindU_IsbL-0600_LatLon0.15_PT102H.grib2 2026-04-30 16:25 1.2M
20260430T12Z_MSC_GDPS_WindU_IsbL-0650_LatLon0.15_PT102H.grib2 2026-04-30 16:25 1.2M
20260430T12Z_MSC_GDPS_WindU_IsbL-0700_LatLon0.15_PT102H.grib2 2026-04-30 16:25 1.2M
20260430T12Z_MSC_GDPS_WindU_IsbL-0750_LatLon0.15_PT102H.grib2 2026-04-30 16:25 1.3M
20260430T12Z_MSC_GDPS_WindU_IsbL-0800_LatLon0.15_PT102H.grib2 2026-04-30 16:25 1.4M
20260430T12Z_MSC_GDPS_WindU_IsbL-0850_LatLon0.15_PT102H.grib2 2026-04-30 16:25 1.4M
20260430T12Z_MSC_GDPS_WindU_IsbL-0875_LatLon0.15_PT102H.grib2 2026-04-30 16:25 1.5M
20260430T12Z_MSC_GDPS_WindU_IsbL-0900_LatLon0.15_PT102H.grib2 2026-04-30 16:25 1.5M
20260430T12Z_MSC_GDPS_WindU_IsbL-0925_LatLon0.15_PT102H.grib2 2026-04-30 16:25 1.5M
20260430T12Z_MSC_GDPS_WindU_IsbL-0950_LatLon0.15_PT102H.grib2 2026-04-30 16:25 1.4M
20260430T12Z_MSC_GDPS_WindU_IsbL-0970_LatLon0.15_PT102H.grib2 2026-04-30 16:25 1.4M
20260430T12Z_MSC_GDPS_WindU_IsbL-0985_LatLon0.15_PT102H.grib2 2026-04-30 16:25 1.4M
20260430T12Z_MSC_GDPS_WindU_IsbL-1000_LatLon0.15_PT102H.grib2 2026-04-30 16:25 1.4M
20260430T12Z_MSC_GDPS_WindU_IsbL-1015_LatLon0.15_PT102H.grib2 2026-04-30 16:25 1.3M
20260430T12Z_MSC_GDPS_WindV_AGL-10m_LatLon0.15_PT102H.grib2 2026-04-30 16:25 1.6M
20260430T12Z_MSC_GDPS_WindV_AGL-120m_LatLon0.15_PT102H.grib2 2026-04-30 16:25 1.0M
20260430T12Z_MSC_GDPS_WindV_AGL-40m_LatLon0.15_PT102H.grib2 2026-04-30 16:25 968K
20260430T12Z_MSC_GDPS_WindV_AGL-80m_LatLon0.15_PT102H.grib2 2026-04-30 16:25 1.0M
20260430T12Z_MSC_GDPS_WindV_IsbL-0001_LatLon0.15_PT102H.grib2 2026-04-30 16:25 678K
20260430T12Z_MSC_GDPS_WindV_IsbL-0005_LatLon0.15_PT102H.grib2 2026-04-30 16:25 857K
20260430T12Z_MSC_GDPS_WindV_IsbL-0010_LatLon0.15_PT102H.grib2 2026-04-30 16:25 886K
20260430T12Z_MSC_GDPS_WindV_IsbL-0020_LatLon0.15_PT102H.grib2 2026-04-30 16:25 859K
20260430T12Z_MSC_GDPS_WindV_IsbL-0030_LatLon0.15_PT102H.grib2 2026-04-30 16:25 941K
20260430T12Z_MSC_GDPS_WindV_IsbL-0050_LatLon0.15_PT102H.grib2 2026-04-30 16:25 1.0M
20260430T12Z_MSC_GDPS_WindV_IsbL-0100_LatLon0.15_PT102H.grib2 2026-04-30 16:25 862K
20260430T12Z_MSC_GDPS_WindV_IsbL-0150_LatLon0.15_PT102H.grib2 2026-04-30 16:25 1.0M
20260430T12Z_MSC_GDPS_WindV_IsbL-0175_LatLon0.15_PT102H.grib2 2026-04-30 16:25 1.0M
20260430T12Z_MSC_GDPS_WindV_IsbL-0200_LatLon0.15_PT102H.grib2 2026-04-30 16:25 838K
20260430T12Z_MSC_GDPS_WindV_IsbL-0225_LatLon0.15_PT102H.grib2 2026-04-30 16:25 847K
20260430T12Z_MSC_GDPS_WindV_IsbL-0250_LatLon0.15_PT102H.grib2 2026-04-30 16:25 905K
20260430T12Z_MSC_GDPS_WindV_IsbL-0275_LatLon0.15_PT102H.grib2 2026-04-30 16:25 933K
20260430T12Z_MSC_GDPS_WindV_IsbL-0300_LatLon0.15_PT102H.grib2 2026-04-30 16:25 924K
20260430T12Z_MSC_GDPS_WindV_IsbL-0350_LatLon0.15_PT102H.grib2 2026-04-30 16:25 936K
20260430T12Z_MSC_GDPS_WindV_IsbL-0400_LatLon0.15_PT102H.grib2 2026-04-30 16:25 878K
20260430T12Z_MSC_GDPS_WindV_IsbL-0450_LatLon0.15_PT102H.grib2 2026-04-30 16:25 878K
20260430T12Z_MSC_GDPS_WindV_IsbL-0500_LatLon0.15_PT102H.grib2 2026-04-30 16:25 1.1M
20260430T12Z_MSC_GDPS_WindV_IsbL-0550_LatLon0.15_PT102H.grib2 2026-04-30 16:25 1.1M
20260430T12Z_MSC_GDPS_WindV_IsbL-0600_LatLon0.15_PT102H.grib2 2026-04-30 16:25 1.1M
20260430T12Z_MSC_GDPS_WindV_IsbL-0650_LatLon0.15_PT102H.grib2 2026-04-30 16:25 1.2M
20260430T12Z_MSC_GDPS_WindV_IsbL-0700_LatLon0.15_PT102H.grib2 2026-04-30 16:25 1.2M
20260430T12Z_MSC_GDPS_WindV_IsbL-0750_LatLon0.15_PT102H.grib2 2026-04-30 16:25 1.3M
20260430T12Z_MSC_GDPS_WindV_IsbL-0800_LatLon0.15_PT102H.grib2 2026-04-30 16:25 1.3M
20260430T12Z_MSC_GDPS_WindV_IsbL-0850_LatLon0.15_PT102H.grib2 2026-04-30 16:25 1.4M
20260430T12Z_MSC_GDPS_WindV_IsbL-0875_LatLon0.15_PT102H.grib2 2026-04-30 16:25 1.5M
20260430T12Z_MSC_GDPS_WindV_IsbL-0900_LatLon0.15_PT102H.grib2 2026-04-30 16:25 1.5M
20260430T12Z_MSC_GDPS_WindV_IsbL-0925_LatLon0.15_PT102H.grib2 2026-04-30 16:25 1.5M
20260430T12Z_MSC_GDPS_WindV_IsbL-0950_LatLon0.15_PT102H.grib2 2026-04-30 16:25 1.4M
20260430T12Z_MSC_GDPS_WindV_IsbL-0970_LatLon0.15_PT102H.grib2 2026-04-30 16:25 1.4M
20260430T12Z_MSC_GDPS_WindV_IsbL-0985_LatLon0.15_PT102H.grib2 2026-04-30 16:25 1.4M
20260430T12Z_MSC_GDPS_WindV_IsbL-1000_LatLon0.15_PT102H.grib2 2026-04-30 16:25 1.7M
20260430T12Z_MSC_GDPS_WindV_IsbL-1015_LatLon0.15_PT102H.grib2 2026-04-30 16:25 1.6M